STARLINK-34560 (64700 NORAD) Tracking and Keplerian Element Data

This shows tracking and keplerian element data for the satellite.

Feedback or suggestion? Click here.




ElementValue
Catalog64700
NameSTARLINK-34560
Epoch Orbit2750
Epoch Day353.90126215
Epoch Year2025
RAAN155.0389
Inclination70.0005
Eccentricity0.0003088
Argument of Perigee268.6723
Mean Anonmoly91.4081
Mean Motion14.95912006
Decay Rate1.849E-05
L11 64700U 25142E 25353.90126215 .00001849 00000+0 17301-3 0 9991
L22 64700 70.0005 155.0389 0003088 268.6723 91.4081 14.95912006 27509



Live tracking and technical data element details for STARLINK-34560 (NORAD 64700). STARLINK-34560 can be tracked NOW for your location showing map with azimuth and elevation plus other details from your city location.







IsCatalogInMostPopularTable: catalog: 64700, numindb: 4
Update: records affected: 1



GetName: 64700 STARLINK-34560

Hit Count: updated at: Mon, 09 Feb 2026 07:47:12 GMT